TimeEDT,TemperatureF,Dew PointF,Humidity,Sea Level PressureIn,VisibilityMPH,Wind Direction,Wind SpeedMPH,Gust SpeedMPH,PrecipitationIn,Events,Conditions,WindDirDegrees,DateUTC
12:53 AM,73.9,73.0,97,30.05,10.0,ESE,3.5,-,N/A,,Partly Cloudy,110,2013-07-02 04:53:00
1:53 AM,73.9,73.0,97,30.04,10.0,SE,4.6,-,N/A,,Partly Cloudy,130,2013-07-02 05:53:00
2:53 AM,73.9,73.0,97,30.01,10.0,ESE,4.6,-,N/A,,Clear,110,2013-07-02 06:53:00
3:53 AM,75.0,73.9,96,30.00,10.0,ESE,5.8,-,N/A,,Clear,120,2013-07-02 07:53:00
4:53 AM,77.0,75.9,96,30.00,10.0,ESE,6.9,-,N/A,,Clear,120,2013-07-02 08:53:00
5:53 AM,77.0,75.9,96,30.02,10.0,SE,4.6,-,N/A,,Clear,140,2013-07-02 09:53:00
6:53 AM,78.1,77.0,96,30.04,10.0,South,4.6,-,N/A,,Clear,170,2013-07-02 10:53:00
7:53 AM,79.0,77.0,94,30.06,10.0,SSE,3.5,-,N/A,,Clear,150,2013-07-02 11:53:00
8:53 AM,81.0,78.1,91,30.06,10.0,SSE,5.8,-,N/A,,Scattered Clouds,160,2013-07-02 12:53:00
10:53 AM,82.9,77.0,82,30.08,8.0,SSE,16.1,23.0,N/A,,Mostly Cloudy,150,2013-07-02 14:53:00
11:53 AM,86.0,78.1,77,30.07,10.0,SE,15.0,-,0.00,,Clear,140,2013-07-02 15:53:00
12:53 PM,86.0,77.0,74,30.08,10.0,SE,19.6,24.2,N/A,,Partly Cloudy,130,2013-07-02 16:53:00
1:53 PM,82.9,75.9,79,30.09,10.0,SSE,8.1,-,0.00,,Mostly Cloudy,160,2013-07-02 17:53:00
2:13 PM,80.6,73.4,79,30.10,10.0,WSW,15.0,19.6,N/A,Thunderstorm,Mostly Cloudy,240,2013-07-02 18:13:00
2:28 PM,78.8,73.4,83,30.11,10.0,WSW,12.7,-,N/A,,Mostly Cloudy,250,2013-07-02 18:28:00
2:53 PM,75.9,73.9,94,30.10,10.0,WNW,8.1,-,0.00,Rain,Light Rain,300,2013-07-02 18:53:00
3:00 PM,75.2,73.4,94,30.10,10.0,WNW,8.1,-,0.00,Rain,Light Rain,300,2013-07-02 19:00:00
3:53 PM,77.0,73.9,90,30.08,10.0,NW,4.6,-,0.00,,Mostly Cloudy,310,2013-07-02 19:53:00
4:26 PM,78.8,73.4,83,30.07,10.0,Calm,Calm,-,N/A,Thunderstorm,Clear,0,2013-07-02 20:26:00
4:36 PM,78.8,73.4,83,30.07,10.0,Calm,Calm,-,N/A,Thunderstorm,Clear,0,2013-07-02 20:36:00
4:53 PM,79.0,73.9,84,30.07,10.0,Calm,Calm,-,N/A,Thunderstorm,Clear,0,2013-07-02 20:53:00
5:06 PM,78.8,73.4,83,30.07,10.0,SSW,8.1,-,N/A,,Mostly Cloudy,210,2013-07-02 21:06:00
5:53 PM,77.0,73.9,90,30.06,10.0,Calm,Calm,-,0.00,,Clear,0,2013-07-02 21:53:00
6:53 PM,77.0,73.9,90,30.09,10.0,North,3.5,-,N/A,,Clear,10,2013-07-02 22:53:00
7:53 PM,75.9,73.9,94,30.11,10.0,ENE,3.5,-,N/A,,Clear,60,2013-07-02 23:53:00
8:53 PM,75.0,73.0,94,30.12,10.0,Calm,Calm,-,N/A,,Clear,0,2013-07-03 00:53:00
9:53 PM,75.0,73.0,94,30.11,10.0,NNE,3.5,-,N/A,,Clear,20,2013-07-03 01:53:00
10:53 PM,73.9,73.0,97,30.12,10.0,Calm,Calm,-,N/A,,Clear,0,2013-07-03 02:53:00
11:53 PM,75.0,73.0,94,30.11,10.0,Calm,Calm,-,N/A,,Clear,0,2013-07-03 03:53:00